Regional Weather Roundup
Issued by NWS Upton, NY

Current Version | Previous Version | Graphics & Text | Print | Product List | Glossary Off
Versions: 1 2 3 4 5 6 7 8 9 10 11 12 13 14 15 16 17 18 19 20 21 22 23 24 25 26 27 28 29 30 31 32 33 34 35 36 37 38 39 40 41 42 43 44 45 46 47 48 49 50

000
ASUS41 KOKX 302005
RWROKX

REGIONAL WEATHER ROUNDUP
NATIONAL WEATHER SERVICE NEW YORK NY
300 PM EST FRI JAN 30 2015

NOTE: "FAIR" INDICATES FEW OR NO CLOUDS BELOW 12,000 FEET WITH NO
SIGNIFICANT WEATHER AND/OR OBSTRUCTIONS TO VISIBILITY.

NYZ071-072-176-178-NJZ106-104-302100-
NEW YORK CITY METRO AREA


CITY           SKY/WX    TMP DP  RH WIND       PRES   REMARKS
CENTRAL PARK   PTSUNNY   37  17  44 NW15G29   29.85R WCI  28
LAGUARDIA APRT PTSUNNY   37  21  52 NW22G28   29.83R WCI  26
KENNEDY INTL   PTSUNNY   37  19  48 NW26G33   29.83R WCI  25
NEWARK/LIBERTY MOSUNNY   38  19  46 NW17G28   29.84R WCI  28
BRNX BOT. GARD   N/A    N/A N/A N/A NW10      29.84S
TETERBORO      MOSUNNY   37  17  44 NW14G32   29.83R WCI  28
$$

NYZ177-179-078>081-302100-
LONG ISLAND NEW YORK

CITY           SKY/WX    TMP DP  RH WIND       PRES   REMARKS
FARMINGDALE    CLOUDY    37  21  52 NW20G28   29.80S WCI  27
ISLIP          CLOUDY    35  24  64 NW15G23   29.77S WCI  25
SHIRLEY        CLOUDY    34  25  69 NW12G23   29.79S WCI  25
WESTHAMPTON    CLOUDY    34  25  69 NW16G22   29.79S WCI  24
MONTAUK POINT    N/A     36  27  69 NW14      29.74F WCI  27
$$

NYZ052-065-067-302100-
HUDSON VALLEY

CITY           SKY/WX    TMP DP  RH WIND       PRES   REMARKS
WHITE PLAINS   PTSUNNY   34  19  54 W23G32    29.79R WCI  22
NEWBURGH       PTSUNNY   34  18  51 NW23G35   29.83R WCI  22
MONTGOMERY     LGT RAIN  33  16  49 N20G33    29.83R WCI  21
POUGHKEEPSIE   CLOUDY    36  17  46 NW16      29.83R WCI  26
ALBANY         PTSUNNY   28  15  58 NW26G33   29.86R WCI  13
$$

NJZ001-105-106-008-010-013-015-019>022-104-302100-
NEW JERSEY

CITY           SKY/WX    TMP DP  RH WIND       PRES   REMARKS
NEWARK/LIBERTY MOSUNNY   38  19  46 NW17G28   29.84R WCI  28
TETERBORO      MOSUNNY   37  17  44 NW14G32   29.83R WCI  28
CALDWELL       MOSUNNY   36  17  46 N15G25    29.85R WCI  27
MORRISTOWN       N/A     37  16  41 N16G26    29.86R WCI  28
SOMERVILLE     CLOUDY    36  20  52 NW17G35   29.86R WCI  26
SUSSEX         CLOUDY    34  16  47 NW9G17    29.85R WCI  27
ANDOVER          N/A     33  14  45 NW14G23   29.86R WCI  23
TRENTON        CLOUDY    37  16  42 NW17G30   29.88R WCI  27
MILLVILLE      CLOUDY    41  18  39 NW17G28   29.91R
ATLANTIC CITY  PTSUNNY   38  20  48 NW22G32   29.88R WCI  27
WRIGHTSTOWN    NOT AVBL
TOMS RIVER     CLOUDY    37  21  52 NW16G32   29.86R WCI  28
BELMAR         CLOUDY    37  21  52 NW18G32   29.84R WCI  27
$$

PAZ047>061-062-071-302100-
EASTERN PENNSYLVANIA

CITY           SKY/WX    TMP DP  RH WIND       PRES   REMARKS
PHILADELPHIA   PTSUNNY   40  16  37 NW21G33   29.93R WCI  30
ALLENTOWN      CLOUDY    34  20  56 NW18G24   29.92R WCI  23
SCRANTON       FLURRIES  28  15  58 NW24G31   29.93R WCI  14
$$

CTZ002-004>006-009-010-012-RIZ004-006-007-MAZ004-011-015-302100-
SOUTHERN NEW ENGLAND
 IN CT

CITY           SKY/WX    TMP DP  RH WIND       PRES   REMARKS
BRADLEY INTL   PTSUNNY   34  21  59 NW20G28   29.75S WCI  23
HARTFORD       CLOUDY    33  21  61 NW10G23   29.78R WCI  25
DANBURY        CLOUDY    33  20  58 NW14G23   29.79S WCI  23
WTRBRY/OXFORD  NOT AVBL
BRIDGEPORT     CLOUDY    35  25  66 NW9       29.79R WCI  28
MERIDEN        CLOUDY    33  21  61 NW20G26   29.78S WCI  21
NEW HAVEN      CLOUDY    34  22  61 N15G23    29.78S WCI  24
CHESTER        MOCLDY    32  25  74 N13       29.74S WCI  22
GROTON         CLOUDY    33  26  75 NW13      29.73F WCI  24
WILLIMANTIC    CLOUDY    33  24  69 NW9       29.74F WCI  25

 IN RI

CITY           SKY/WX    TMP DP  RH WIND       PRES   REMARKS
PROVIDENCE     CLOUDY    34  27  75 NW9       29.71F WCI  27
BLOCK ISLAND   CLOUDY    34  27  75 NW12G20   29.70F WCI  25
WESTERLY       CLOUDY    34  26  72 NW10G16   29.73F WCI  26

 IN MA

CITY           SKY/WX    TMP DP  RH WIND       PRES   REMARKS
BOSTON         CLOUDY    33  28  81 NW9       29.72S WCI  25
WORCESTER      FLURRIES  29  24  82 NW10      29.68S WCI  20
WESTFIELD      CLOUDY    32  21  64 NW20      29.76R WCI  20
PROVINCETOWN   CLOUDY    34  30  86 NW9       29.70S WCI  26
NANTUCKET      CLOUDY    36  33  89 NW13      29.67F WCI  27
$$

ANZ330-335-338-340-345-350-353-355-302100-
COASTAL MARINE OBSERVATIONS


STATION/POSITION TIME  SKY/WX   TEMP    WIND        PRES    VSBY  WAVE
                                AIR SEA DIR/SP/G                  HT/PER
                 (UTC)          (F)     (DEG/KT/KT) (MB)    (MI)  (FT/S)
NY HARB ENTRANCE 2000            38 40  310/ 21/ 25 1009.1          4/ 4
4S FIRE IS       2000               37                N/A           3/ 6
20S FIRE ISLAND  1900               41              1009.2          5/ 5
23SW MTP         2000                                 N/A           4/ 6
HUDSON CANYON    NOT AVBL
EXECUTION ROCKS  1900            37 33  310/ 17/ 23   N/A
WESTERN LI SOUND 1900            36     320/ 17/ 23   N/A           1/ 2
CENTRAL LI SOUND 1900            34 35  310/ 14/ 17   N/A           2/ 2
EASTERN LI SOUND NOT AVBL
ROBBINS REEF     1900            36     320/ 22/ 27 1009.0
$$


>>>>>>>>>>>>>>>>>>>>>>>>>>>> KEY <<<<<<<<<<<<<<<<<<<<<<<<<<<
>                                                          <
>     SKY/WX - SKY CONDITION/PRESENT WEATHER               <
>     TMP    - TEMPERATURE IN FAHRENHEIT                   <
>     DP     - DEWPOINT IN FAHRENHEIT                      <
>     RH     - RELATIVE HUMIDITY IN PERCENT                <
>     WIND   - DIRECTION AND SPEED IN MPH                  <
>     PRES   - MEAN SEA LEVEL PRESSURE IN INCHES OF HG     <
>     WCI    - WIND CHILL INDEX                            <
>     VSB    - VISIBILITY IN MILES                         <
>     HX     - HEAT INDEX                                  <
>     TC     - TEMPERATURE IN CELSIUS                      <
>     VRB    - VARIABLE WIND DIRECTION                     <
>                                                          <
>>>>>>>>>>>>>>>>>>>>>>>>>>>> KEY <<<<<<<<<<<<<<<<<<<<<<<<<<<





USA.gov is the U.S. government's official web portal to all federal, state and local government web resources and services.